Regional Weather Roundup
Issued by NWS Boston, MA

Current Version | Previous Version | Text Only | Print | Product List | Glossary Off
Versions: 1 2 3 4 5 6 7 8 9 10 11 12 13 14 15 16 17 18 19 20 21 22 23 24 25 26 27
000 ASUS41 KBOX 180310 RWRBOX REGIONAL WEATHER ROUNDUP NATIONAL WEATHER SERVICE TAUNTON MA 1000 PM EST SUN DEC 17 2017 NOTE: "FAIR" INDICATES FEW OR NO CLOUDS BELOW 12,000 FEET WITH NO SIGNIFICANT WEATHER AND/OR OBSTRUCTIONS TO VISIBILITY. MAZALL-180400- EASTERN MASSACHUSETTS CITY SKY/WX TMP DP RH WIND PRES REMARKS BOSTON CLOUDY 25 5 42 N8 30.27F WCI 16 BEVERLY PTCLDY 20 6 55 N5 30.26F WCI 13 LAWRENCE PTCLDY 22 7 52 N3 30.28F BEDFORD PTCLDY 20 9 62 CALM 30.26F BLUE HILL N/A 23 5 46 N6 30.22F WCI 16 NORWOOD CLOUDY 23 15 71 CALM 30.27F MARSHFIELD CLOUDY 23 12 63 CALM 30.27F PLYMOUTH CLOUDY 22 12 65 CALM 30.27F TAUNTON PTCLDY 21 15 78 CALM 30.26F NEW BEDFORD CLOUDY 23 16 74 CALM 30.26F $$ MAZALL-180400- CAPE COD AND THE ISLANDS CITY SKY/WX TMP DP RH WIND PRES REMARKS FALMOUTH PTCLDY 23 10 58 CALM 30.27F HYANNIS CLOUDY 27 8 44 W3 30.25F CHATHAM CLOUDY 24 12 60 CALM 30.27F PROVINCETOWN PTCLDY 29 11 47 N13 30.27 WCI 19 NANTUCKET CLOUDY 29 10 45 N3 30.26F MARTHAS VNYRD CLOUDY N/A N/A N/A CALM 30.26F $$ MAZALL-180400- CENTRAL AND WESTERN MASSACHUSETTS CITY SKY/WX TMP DP RH WIND PRES REMARKS WORCESTER CLOUDY 19 6 57 CALM 30.20F FITCHBURG PTCLDY 22 9 57 CALM 30.26F ORANGE NOT AVBL SPRINGFIELD PTCLDY 21 13 73 CALM 30.24F WESTFIELD CLOUDY 23 12 62 CALM 30.25F NORTH ADAMS PTCLDY 16 10 77 CALM 30.22F PITTSFIELD MOCLDY 18 11 74 CALM 30.17F $$ RIZALL-180400- RHODE ISLAND CITY SKY/WX TMP DP RH WIND PRES REMARKS PROVIDENCE CLOUDY 26 13 57 CALM 30.26F NEWPORT CLOUDY 28 11 48 N5 30.25F WCI 23 BLOCK ISLAND CLOUDY 30 15 53 NE3 30.27F SMITHFIELD CLOUDY 21 8 57 CALM 30.24F WESTERLY PTCLDY 28 18 66 CALM 30.27F $$ CTZALL-180400- CONNECTICUT CITY SKY/WX TMP DP RH WIND PRES REMARKS BRADLEY INTL CLOUDY 24 13 62 CALM 30.25F HARTFORD CLOUDY 27 15 61 CALM 30.26F BRIDGEPORT CLOUDY 32 15 49 NE5 30.25F WCI 27 DANBURY CLOUDY 29 13 51 CALM 30.24F GROTON CLOUDY 30 10 43 CALM 30.26F NEW HAVEN CLOUDY 31 14 49 E3 30.25F CHESTER FAIR 30 10 43 CALM 30.24F MERIDEN CLOUDY 28 18 66 CALM 30.25F WILLIMANTIC CLOUDY 25 15 66 CALM 30.26F OXFORD CLOUDY 27 15 61 CALM 30.22F $$ MEZ002-015-021-024-NHZ003-005-008-011-012-014-VTZ005-008-180400- NORTHERN NEW ENGLAND CITY SKY/WX TMP DP RH WIND PRES REMARKS PORTLAND ME CLOUDY 13 3 64 VRB3 30.28S BANGOR ME CLOUDY 8 -1 66 W5 30.26R WCI 0 CONCORD NH PTCLDY 15 7 70 CALM 30.26S MANCHESTER NH CLOUDY 20 6 55 N6 30.25F WCI 12 NASHUA NH PTCLDY 19 9 65 CALM 30.27F PORTSMOUTH NH CLOUDY 19 3 50 W5 30.26F WCI 12 JAFFREY NH PTCLDY 12 8 84 CALM 30.20F KEENE NH MOCLDY 13 10 88 S3 30.25F BURLINGTON VT CLOUDY 7 1 76 E3 30.27S MT. WASHINGTON PTCLDY 10 -17 28 NW30 N/A WCI -12 $$ NYZ052-076-180400- EASTERN NEW YORK CITY SKY/WX TMP DP RH WIND PRES REMARKS ALBANY MOCLDY 20 9 62 N3 30.26F NEW YORK CITY CLOUDY 35 25 66 E7 30.24F WCI 29 $$ ANZALL-180400- MARINE OBSERVATIONS STATION/POSITION TIME TEMP WIND PRES VSBY WAVE AIR SEA DIR/SP/G HT/PER (UTC) (F) (DEG/KT/KT) (MB) (MI) (FT/S) BOSTON BUOY 0250 28 47 340/ 12/ 16 1024.3F 2/ 3 BUZZARDS BAY 0200 30 330/ 6/ 7 1026.0R NANTUCKET SOUND 0250 30 40 330/ 8/ 10 1025.0F 1 MASS BAY-STELLWA 0204 26 46 330/ 12/ 16 1025.1R 2/ 3 ISLE OF SHOALS 0200 23 320/ 7/ 9 1025.1F S OF BLOCK IS 0243 51 N/A 3/ 6 $$ ......................KEY......................... SKY/WX - SKY CONDITION/PRESENT WEATHER TMP - TEMPERATURE IN FAHRENHEIT DWPT - DEWPOINT IN FAHRENHEIT RH - RELATIVE HUMIDITY IN PERCENT WIND - DIRECTION AND SPEED IN MPH PRES - MEAN SEA LEVEL PRESSURE IN INCHES OF HG WCI - WIND CHILL INDEX VSB - VISIBILITY IN MILES HX - HEAT INDEX TC - TEMPERATURE IN CELSIUS VRB - VARIABLE WIND DIRECTION N/A - NOT AVAILABLE

USA.gov is the U.S. government's official web portal to all federal, state and local government web resources and services.